Terug naar catalogus

YAOGAN 45

ActiefMilitairMEO
NORAD 65563·PAYLOAD·🇨🇳 China

Gelanceerd Sep 8, 2025 vanaf Wenchang Space Launch Site

Loading…

Volgende Passages (komende 24 uur)

TLE

VersSource: Space-Track

Epoch: Sep 14, 2026, 05:49 UTC

1 65563U 25202A   26257.24265678 -.00000014  00000-0  00000-0 0  9994
2 65563  19.9302 162.6288 0007617 349.7136  10.2995  5.31204400 16820

Volg YAOGAN 45 in realtime met AllMySat

Download on the App Store